Weather History for KMRB - December, 2014

Change the Weather History Date:

Tuesday, December 30, 2014

  Actual Average Record
Temperature  
Mean Temperature 30 °F 31 °F  
Max Temperature 40 °F 40 °F 68 °F (1965)
Min Temperature 20 °F 23 °F 3 °F (1963)
Degree Days  
Heating Degree Days 35 34  
Month to date heating degree days 773 922  
Since 1 July heating degree days 1732 1992  
Cooling Degree Days 0 0  
Month to date cooling degree days 0 0  
Year to date cooling degree days 958 895  
Moisture  
Dew Point 12 °F    
Average Humidity 42    
Maximum Humidity 59    
Minimum Humidity 25    
Precipitation  
Precipitation 0.00 in 0.07 in 1.60 in (1935)
Month to date precipitation 2.77 2.65  
Year to date precipitation 35.16 38.64  
Sea Level Pressure  
Sea Level Pressure 30.40 in    
Wind  
Wind Speed 6 mph (NNW)    
Max Wind Speed 13 mph    
Max Gust Speed 16 mph    
Visibility 10 miles    
Events      
T = Trace of Precipitation, MM = Missing Value Source: NWS Daily Summary

Daily Weather History Graph

Daily Weather History Graph

Search for Another Location

Airport or City:

Trip Planner

Search our weather history database for the weather conditions in past years. The results will help you decide how hot, cold, wet, or windy it might be!

Date:

Astronomy

Dec. 30, 2014 Rise Set
Actual Time 7:31 AM EST 4:57 PM EST
Civil Twilight 7:01 AM EST 5:27 PM EST
Nautical Twilight 6:27 AM EST 6:01 PM EST
Astronomical Twilight 5:55 AM EST 6:33 PM EST
Moon 1:07 PM EST (12/30) 1:53 AM EST (12/30)
Length of Visible Light 10h 26m
Length of Day
9h 25m
Waxing Gibbous, 71% of the Moon is Illuminated
Dec 30
Waxing Gibbous
Jan 4
Full
Jan 13
Last Quarter
Jan 20
New
Jan 26
First Quarter

Hourly Weather History & Observations

Time (EST) Temp. Windchill Dew Point Humidity Pressure Visibility Wind Dir Wind Speed Gust Speed Precip Events Conditions
12:53 AM 32.0 °F 26.4 °F 19.0 °F 59% 30.30 in 10.0 mi North 5.8 mph - N/A   Clear
1:53 AM 33.1 °F 26.9 °F 19.0 °F 56% 30.31 in 10.0 mi North 6.9 mph - N/A   Clear
2:53 AM 33.1 °F 30.0 °F 19.0 °F 56% 30.33 in 10.0 mi NNE 3.5 mph - N/A   Clear
3:53 AM 33.1 °F 27.7 °F 18.0 °F 54% 30.35 in 10.0 mi NNW 5.8 mph - N/A   Clear
4:53 AM 32.0 °F 24.8 °F 16.0 °F 52% 30.35 in 10.0 mi North 8.1 mph - N/A   Clear
5:53 AM 32.0 °F 23.6 °F 15.1 °F 50% 30.36 in 10.0 mi NNW 10.4 mph - N/A   Clear
6:53 AM 30.9 °F 23.5 °F 14.0 °F 50% 30.38 in 10.0 mi NNW 8.1 mph - N/A   Clear
7:53 AM 30.9 °F 22.8 °F 14.0 °F 50% 30.42 in 10.0 mi NNW 9.2 mph - N/A   Clear
8:53 AM 32.0 °F 25.6 °F 15.1 °F 50% 30.45 in 10.0 mi North 6.9 mph - N/A   Clear
9:53 AM 34.0 °F 28.8 °F 15.1 °F 46% 30.46 in 10.0 mi North 5.8 mph - N/A   Clear
10:53 AM 35.1 °F 27.9 °F 12.9 °F 40% 30.45 in 10.0 mi North 9.2 mph - N/A   Clear
11:53 AM 37.9 °F 31.5 °F 10.9 °F 33% 30.42 in 10.0 mi North 9.2 mph - N/A   Clear
12:53 PM 37.0 °F 31.6 °F 10.0 °F 33% 30.39 in 10.0 mi WNW 6.9 mph - N/A   Clear
1:53 PM 37.9 °F 31.5 °F 8.1 °F 29% 30.38 in 10.0 mi NW 9.2 mph - N/A   Clear
2:53 PM 39.0 °F 32.3 °F 6.1 °F 26% 30.39 in 10.0 mi North 10.4 mph - N/A   Clear
3:53 PM 39.0 °F 34.8 °F 6.1 °F 26% 30.40 in 10.0 mi North 5.8 mph - N/A   Clear
4:53 PM 37.9 °F - 6.1 °F 27% 30.40 in 10.0 mi Calm Calm - N/A   Clear
5:53 PM 30.0 °F - 10.9 °F 45% 30.40 in 10.0 mi Calm Calm - N/A   Clear
6:53 PM 30.0 °F 25.2 °F 10.9 °F 45% 30.42 in 10.0 mi NW 4.6 mph - N/A   Clear
7:53 PM 28.0 °F 24.2 °F 10.0 °F 47% 30.43 in 10.0 mi NW 3.5 mph - N/A   Clear
8:53 PM 28.0 °F 22.8 °F 9.0 °F 45% 30.44 in 10.0 mi WNW 4.6 mph - N/A   Clear
9:53 PM 23.0 °F - 10.9 °F 60% 30.42 in 10.0 mi Calm Calm - N/A   Clear
10:53 PM 23.0 °F 18.4 °F 10.9 °F 60% 30.43 in 10.0 mi SSW 3.5 mph - N/A   Clear
11:53 PM 21.0 °F 16.2 °F 10.9 °F 65% 30.43 in 9.0 mi West 3.5 mph - N/A   Clear